TimeGMT,TemperatureF,Dew PointF,Humidity,Sea Level PressureIn,VisibilityMPH,Wind Direction,Wind SpeedMPH,Gust SpeedMPH,PrecipitationIn,Events,Conditions,WindDirDegrees,DateUTC
12:00 AM,49,44,76,29.79,11,WSW,11.5,,,Rain,Light Rain Showers,250,2013-11-08 00:00:00
12:50 AM,50.0,42.8,76,29.74,6.2,WSW,10.4,-,N/A,,Partly Cloudy,250,2013-11-08 00:50:00
1:50 AM,50.0,46.4,87,29.74,6.2,WSW,11.5,-,N/A,,Partly Cloudy,240,2013-11-08 01:50:00
2:50 AM,50.0,42.8,76,29.71,6.2,SW,10.4,-,N/A,,Partly Cloudy,230,2013-11-08 02:50:00
3:00 AM,49,42,70,29.74,11,SW,10.4,,,,Haze,230,2013-11-08 03:00:00
3:50 AM,50.0,44.6,82,29.71,-9999.0,SW,11.5,-,N/A,,Clear,230,2013-11-08 03:50:00
4:50 AM,50.0,44.6,82,29.68,5.0,SW,11.5,-,N/A,Rain,Light Rain,220,2013-11-08 04:50:00
5:50 AM,46.4,44.6,93,29.68,6.2,West,6.9,-,N/A,Rain,Light Rain,260,2013-11-08 05:50:00
6:00 AM,47,45,89,29.70,9,West,6.9,,,Rain,Light Rain,260,2013-11-08 06:00:00
6:50 AM,46.4,44.6,93,29.68,6.2,WSW,3.5,-,N/A,Rain,Light Rain,250,2013-11-08 06:50:00
7:50 AM,48.2,44.6,87,29.65,6.2,West,4.6,-,N/A,Rain,Light Rain,260,2013-11-08 07:50:00
8:50 AM,46.4,44.6,93,29.68,6.2,WNW,6.9,-,N/A,,Mostly Cloudy,290,2013-11-08 08:50:00
9:00 AM,47,44,86,29.69,9,WNW,6.9,,,Rain,Light Rain,290,2013-11-08 09:00:00
9:50 AM,48.2,44.6,87,29.65,6.2,WNW,5.8,-,N/A,Rain,Light Rain Showers,290,2013-11-08 09:50:00
10:50 AM,48.2,44.6,87,29.68,6.2,WNW,8.1,-,N/A,Rain,Light Rain Showers,290,2013-11-08 10:50:00
11:50 AM,48.2,44.6,87,29.68,6.2,West,5.8,-,N/A,,Scattered Clouds,280,2013-11-08 11:50:00
12:00 PM,49,45,80,29.69,12,West,5.8,,,Rain,Light Rain Showers,280,2013-11-08 12:00:00
12:50 PM,50.0,44.6,82,29.68,6.2,WNW,12.7,-,N/A,,Scattered Clouds,300,2013-11-08 12:50:00
1:50 PM,50.0,41.0,71,29.68,6.2,NW,17.3,29.9,N/A,Rain,Light Rain Showers,310,2013-11-08 13:50:00
2:50 PM,51.8,41.0,67,29.71,6.2,WNW,13.8,25.3,N/A,,Partly Cloudy,290,2013-11-08 14:50:00
3:00 PM,51,42,61,29.72,11,WNW,13.8,,,Rain,Light Rain Showers,290,2013-11-08 15:00:00
3:07 PM,50.0,42.8,76,29.71,6.2,WNW,12.7,-,N/A,,Scattered Clouds,290,2013-11-08 15:07:00
3:50 PM,48.2,41.0,76,29.71,6.2,WNW,13.8,-,N/A,,Scattered Clouds,300,2013-11-08 15:50:00
4:50 PM,48.2,39.2,71,29.74,6.2,WNW,15.0,-,N/A,,Scattered Clouds,300,2013-11-08 16:50:00
5:50 PM,46.4,39.2,76,29.77,6.2,WNW,11.5,-,N/A,,Partly Cloudy,290,2013-11-08 17:50:00
6:00 PM,46,39,68,29.79,12,WNW,11.5,,,,Partly Cloudy,290,2013-11-08 18:00:00
6:50 PM,46.4,39.2,76,29.80,6.2,WNW,10.4,-,N/A,,Partly Cloudy,290,2013-11-08 18:50:00
7:50 PM,48.2,39.2,71,29.80,6.2,West,12.7,-,N/A,,Partly Cloudy,280,2013-11-08 19:50:00
8:50 PM,46.4,41.0,81,29.80,6.2,WNW,11.5,-,N/A,,Partly Cloudy,290,2013-11-08 20:50:00
9:00 PM,47,40,69,29.83,12,WNW,11.5,,,,Scattered Clouds,290,2013-11-08 21:00:00
9:50 PM,48.2,37.4,66,29.83,6.2,West,13.8,-,N/A,,Partly Cloudy,280,2013-11-08 21:50:00
10:50 PM,46.4,39.2,76,29.83,6.2,West,10.4,-,N/A,,Partly Cloudy,280,2013-11-08 22:50:00
11:50 PM,46.4,39.2,76,29.83,6.2,WNW,11.5,23.0,N/A,,Scattered Clouds,290,2013-11-08 23:50:00